owner,sensor,date,latitude,longitude,sea_surface_height_above_sea_level,qcFlag 
TCOON,ioos:station:TCOON:524:1,2016-06-01T00:18:00Z,29.8672,-93.9310,1.786,1111122 
TCOON,ioos:station:TCOON:524:1,2016-06-01T01:18:00Z,29.8672,-93.9310,1.779,1111122 
TCOON,ioos:station:TCOON:524:1,2016-06-01T02:18:00Z,29.8672,-93.9310,1.774,1111122 
TCOON,ioos:station:TCOON:524:1,2016-06-01T03:18:00Z,29.8672,-93.9310,1.799,1111122 
TCOON,ioos:station:TCOON:524:1,2016-06-01T04:18:00Z,29.8672,-93.9310,1.825,1111122 
TCOON,ioos:station:TCOON:524:1,2016-06-01T05:18:00Z,29.8672,-93.9310,1.857,1111122 
TCOON,ioos:station:TCOON:524:1,2016-06-01T06:24:00Z,29.8672,-93.9310,1.914,1111122 
TCOON,ioos:station:TCOON:524:1,2016-06-01T07:24:00Z,29.8672,-93.9310,1.977,1111122 
TCOON,ioos:station:TCOON:524:1,2016-06-01T08:42:00Z,29.8672,-93.9310,2.023,1111122 
TCOON,ioos:station:TCOON:524:1,2016-06-01T09:36:00Z,29.8672,-93.9310,1.992,1111122 
TCOON,ioos:station:TCOON:524:1,2016-06-01T10:48:00Z,29.8672,-93.9310,1.962,1111122 
TCOON,ioos:station:TCOON:524:1,2016-06-01T11:30:00Z,29.8672,-93.9310,2.015,1111122 
TCOON,ioos:station:TCOON:524:1,2016-06-01T12:24:00Z,29.8672,-93.9310,1.955,1111122 
TCOON,ioos:station:TCOON:524:1,2016-06-01T13:42:00Z,29.8672,-93.9310,1.89,1111122 
TCOON,ioos:station:TCOON:524:1,2016-06-01T14:42:00Z,29.8672,-93.9310,1.938,1111122 
TCOON,ioos:station:TCOON:524:1,2016-06-01T15:24:00Z,29.8672,-93.9310,1.921,1111122 
TCOON,ioos:station:TCOON:524:1,2016-06-01T16:36:00Z,29.8672,-93.9310,1.996,1111122 
TCOON,ioos:station:TCOON:524:1,2016-06-01T17:42:00Z,29.8672,-93.9310,2.026,1111122 
TCOON,ioos:station:TCOON:524:1,2016-06-01T18:24:00Z,29.8672,-93.9310,1.937,1111122 
TCOON,ioos:station:TCOON:524:1,2016-06-01T19:30:00Z,29.8672,-93.9310,2.003,1111122 
TCOON,ioos:station:TCOON:524:1,2016-06-01T20:24:00Z,29.8672,-93.9310,2.054,1111122 
TCOON,ioos:station:TCOON:524:1,2016-06-01T21:36:00Z,29.8672,-93.9310,2.019,1111122 
TCOON,ioos:station:TCOON:524:1,2016-06-01T22:36:00Z,29.8672,-93.9310,1.94,1111122 
TCOON,ioos:station:TCOON:524:1,2016-06-01T23:42:00Z,29.8672,-93.9310,1.915,1111122 
TCOON,ioos:station:TCOON:524:1,2016-06-02T00:30:00Z,29.8672,-93.9310,1.811,1111122 
TCOON,ioos:station:TCOON:524:1,2016-06-02T01:24:00Z,29.8672,-93.9310,1.828,1111122 
TCOON,ioos:station:TCOON:524:1,2016-06-02T02:24:00Z,29.8672,-93.9310,1.823,1111122 
TCOON,ioos:station:TCOON:524:1,2016-06-02T03:42:00Z,29.8672,-93.9310,1.825,1111122 
TCOON,ioos:station:TCOON:524:1,2016-06-02T04:36:00Z,29.8672,-93.9310,1.835,1111122 
TCOON,ioos:station:TCOON:524:1,2016-06-02T05:36:00Z,29.8672,-93.9310,1.916,1111122 
TCOON,ioos:station:TCOON:524:1,2016-06-02T06:24:00Z,29.8672,-93.9310,1.959,1111122 
TCOON,ioos:station:TCOON:524:1,2016-06-02T07:30:00Z,29.8672,-93.9310,2.051,1111122 
TCOON,ioos:station:TCOON:524:1,2016-06-02T08:42:00Z,29.8672,-93.9310,2.115,1111122 
TCOON,ioos:station:TCOON:524:1,2016-06-02T09:24:00Z,29.8672,-93.9310,2.09,1111122 
TCOON,ioos:station:TCOON:524:1,2016-06-02T10:30:00Z,29.8672,-93.9310,2.117,1111122 
TCOON,ioos:station:TCOON:524:1,2016-06-02T11:42:00Z,29.8672,-93.9310,2.106,1111122 
TCOON,ioos:station:TCOON:524:1,2016-06-02T12:24:00Z,29.8672,-93.9310,2.031,1111122 
TCOON,ioos:station:TCOON:524:1,2016-06-02T13:36:00Z,29.8672,-93.9310,2.061,1111122 
TCOON,ioos:station:TCOON:524:1,2016-06-02T14:30:00Z,29.8672,-93.9310,2.046,1111122 
TCOON,ioos:station:TCOON:524:1,2016-06-02T15:30:00Z,29.8672,-93.9310,2.034,1111122 
TCOON,ioos:station:TCOON:524:1,2016-06-02T16:36:00Z,29.8672,-93.9310,2.073,1111122 
TCOON,ioos:station:TCOON:524:1,2016-06-02T17:30:00Z,29.8672,-93.9310,2.073,1111122 
TCOON,ioos:station:TCOON:524:1,2016-06-02T18:48:00Z,29.8672,-93.9310,2.151,1111122 
TCOON,ioos:station:TCOON:524:1,2016-06-02T19:36:00Z,29.8672,-93.9310,2.204,1111122 
TCOON,ioos:station:TCOON:524:1,2016-06-02T20:24:00Z,29.8672,-93.9310,2.167,1111122 
TCOON,ioos:station:TCOON:524:1,2016-06-02T21:36:00Z,29.8672,-93.9310,2.08,1111122 
TCOON,ioos:station:TCOON:524:1,2016-06-02T22:24:00Z,29.8672,-93.9310,1.984,1111122 
TCOON,ioos:station:TCOON:524:1,2016-06-02T23:36:00Z,29.8672,-93.9310,1.973,1111122 
TCOON,ioos:station:TCOON:524:1,2016-06-03T00:30:00Z,29.8672,-93.9310,1.883,1111122 
TCOON,ioos:station:TCOON:524:1,2016-06-03T01:24:00Z,29.8672,-93.9310,1.848,1111122 
TCOON,ioos:station:TCOON:524:1,2016-06-03T02:36:00Z,29.8672,-93.9310,1.826,1111122 
TCOON,ioos:station:TCOON:524:1,2016-06-03T03:24:00Z,29.8672,-93.9310,1.839,1111122 
TCOON,ioos:station:TCOON:524:1,2016-06-03T04:42:00Z,29.8672,-93.9310,1.853,1111122 
TCOON,ioos:station:TCOON:524:1,2016-06-03T05:30:00Z,29.8672,-93.9310,1.911,1111122 
TCOON,ioos:station:TCOON:524:1,2016-06-03T06:42:00Z,29.8672,-93.9310,2.023,1111122 
TCOON,ioos:station:TCOON:524:1,2016-06-03T07:48:00Z,29.8672,-93.9310,2.074,1111122 
TCOON,ioos:station:TCOON:524:1,2016-06-03T08:24:00Z,29.8672,-93.9310,2.138,1111122 
TCOON,ioos:station:TCOON:524:1,2016-06-03T09:30:00Z,29.8672,-93.9310,2.15,1111122 
TCOON,ioos:station:TCOON:524:1,2016-06-03T10:42:00Z,29.8672,-93.9310,2.145,1111122 
TCOON,ioos:station:TCOON:524:1,2016-06-03T11:42:00Z,29.8672,-93.9310,2.165,1111122 
TCOON,ioos:station:TCOON:524:1,2016-06-03T12:30:00Z,29.8672,-93.9310,2.191,1111122 
TCOON,ioos:station:TCOON:524:1,2016-06-03T13:30:00Z,29.8672,-93.9310,2.218,1111122 
TCOON,ioos:station:TCOON:524:1,2016-06-03T14:36:00Z,29.8672,-93.9310,2.176,1111122 
TCOON,ioos:station:TCOON:524:1,2016-06-03T15:36:00Z,29.8672,-93.9310,2.297,1111122 
TCOON,ioos:station:TCOON:524:1,2016-06-03T16:36:00Z,29.8672,-93.9310,2.133,1111122 
TCOON,ioos:station:TCOON:524:1,2016-06-03T17:24:00Z,29.8672,-93.9310,2.215,1111122 
TCOON,ioos:station:TCOON:524:1,2016-06-03T18:18:00Z,29.8672,-93.9310,2.196,1111122 
TCOON,ioos:station:TCOON:524:1,2016-06-03T19:18:00Z,29.8672,-93.9310,2.179,1111122 
TCOON,ioos:station:TCOON:524:1,2016-06-03T20:18:00Z,29.8672,-93.9310,2.208,1111122 
TCOON,ioos:station:TCOON:524:1,2016-06-03T21:18:00Z,29.8672,-93.9310,2.089,1111122 
TCOON,ioos:station:TCOON:524:1,2016-06-03T22:18:00Z,29.8672,-93.9310,2.03,1111122 
TCOON,ioos:station:TCOON:524:1,2016-06-03T23:18:00Z,29.8672,-93.9310,2.028,1111122 
TCOON,ioos:station:TCOON:524:1,2016-06-04T00:18:00Z,29.8672,-93.9310,1.941,1111122 
TCOON,ioos:station:TCOON:524:1,2016-06-04T01:18:00Z,29.8672,-93.9310,1.854,1111122 
TCOON,ioos:station:TCOON:524:1,2016-06-04T02:18:00Z,29.8672,-93.9310,1.828,1111122 
TCOON,ioos:station:TCOON:524:1,2016-06-04T03:18:00Z,29.8672,-93.9310,1.829,1111122 
TCOON,ioos:station:TCOON:524:1,2016-06-04T04:18:00Z,29.8672,-93.9310,1.862,1111122 
TCOON,ioos:station:TCOON:524:1,2016-06-04T05:18:00Z,29.8672,-93.9310,1.862,1111122 
TCOON,ioos:station:TCOON:524:1,2016-06-04T06:18:00Z,29.8672,-93.9310,1.922,1111122 
TCOON,ioos:station:TCOON:524:1,2016-06-04T07:18:00Z,29.8672,-93.9310,1.961,1111122 
TCOON,ioos:station:TCOON:524:1,2016-06-04T08:18:00Z,29.8672,-93.9310,2.046,1111122 
TCOON,ioos:station:TCOON:524:1,2016-06-04T09:18:00Z,29.8672,-93.9310,2.094,1111122 
TCOON,ioos:station:TCOON:524:1,2016-06-04T10:18:00Z,29.8672,-93.9310,2.139,1111122 
TCOON,ioos:station:TCOON:524:1,2016-06-04T11:18:00Z,29.8672,-93.9310,2.187,1111122 
TCOON,ioos:station:TCOON:524:1,2016-06-04T12:18:00Z,29.8672,-93.9310,2.201,1111122 
TCOON,ioos:station:TCOON:524:1,2016-06-04T13:18:00Z,29.8672,-93.9310,2.214,1111122 
TCOON,ioos:station:TCOON:524:1,2016-06-04T14:18:00Z,29.8672,-93.9310,2.2,1111122 
TCOON,ioos:station:TCOON:524:1,2016-06-04T15:18:00Z,29.8672,-93.9310,2.142,1111122 
TCOON,ioos:station:TCOON:524:1,2016-06-04T16:18:00Z,29.8672,-93.9310,2.18,1111122 
TCOON,ioos:station:TCOON:524:1,2016-06-04T17:18:00Z,29.8672,-93.9310,2.165,1111122 
TCOON,ioos:station:TCOON:524:1,2016-06-04T18:18:00Z,29.8672,-93.9310,2.171,1111122 
TCOON,ioos:station:TCOON:524:1,2016-06-04T19:18:00Z,29.8672,-93.9310,2.076,1111122 
TCOON,ioos:station:TCOON:524:1,2016-06-04T20:18:00Z,29.8672,-93.9310,2.169,1111122 
TCOON,ioos:station:TCOON:524:1,2016-06-04T21:18:00Z,29.8672,-93.9310,2.141,1111122 
TCOON,ioos:station:TCOON:524:1,2016-06-04T22:18:00Z,29.8672,-93.9310,2.121,1111122 
TCOON,ioos:station:TCOON:524:1,2016-06-04T23:18:00Z,29.8672,-93.9310,2.066,1111122 
TCOON,ioos:station:TCOON:524:1,2016-06-05T00:18:00Z,29.8672,-93.9310,2.014,1111122 
TCOON,ioos:station:TCOON:524:1,2016-06-05T01:18:00Z,29.8672,-93.9310,1.948,1111122 
TCOON,ioos:station:TCOON:524:1,2016-06-05T02:18:00Z,29.8672,-93.9310,1.884,1111122 
TCOON,ioos:station:TCOON:524:1,2016-06-05T03:18:00Z,29.8672,-93.9310,1.869,1111122 
TCOON,ioos:station:TCOON:524:1,2016-06-05T04:18:00Z,29.8672,-93.9310,1.857,1111122 
TCOON,ioos:station:TCOON:524:1,2016-06-05T05:18:00Z,29.8672,-93.9310,1.861,1111122 
TCOON,ioos:station:TCOON:524:1,2016-06-05T06:24:00Z,29.8672,-93.9310,1.9,1111122 
TCOON,ioos:station:TCOON:524:1,2016-06-05T07:18:00Z,29.8672,-93.9310,1.941,1111122 
TCOON,ioos:station:TCOON:524:1,2016-06-05T08:18:00Z,29.8672,-93.9310,1.997,1111122 
TCOON,ioos:station:TCOON:524:1,2016-06-05T09:18:00Z,29.8672,-93.9310,2.049,1111122 
TCOON,ioos:station:TCOON:524:1,2016-06-05T10:18:00Z,29.8672,-93.9310,2.173,1111122 
TCOON,ioos:station:TCOON:524:1,2016-06-05T11:18:00Z,29.8672,-93.9310,2.178,1111122 
TCOON,ioos:station:TCOON:524:1,2016-06-05T12:18:00Z,29.8672,-93.9310,2.169,1111122 
TCOON,ioos:station:TCOON:524:1,2016-06-05T13:18:00Z,29.8672,-93.9310,2.233,1111122 
TCOON,ioos:station:TCOON:524:1,2016-06-05T14:18:00Z,29.8672,-93.9310,2.127,1111122 
TCOON,ioos:station:TCOON:524:1,2016-06-05T15:18:00Z,29.8672,-93.9310,2.104,1111122 
TCOON,ioos:station:TCOON:524:1,2016-06-05T16:18:00Z,29.8672,-93.9310,2.13,1111122 
TCOON,ioos:station:TCOON:524:1,2016-06-05T17:18:00Z,29.8672,-93.9310,2.102,1111122 
TCOON,ioos:station:TCOON:524:1,2016-06-05T18:18:00Z,29.8672,-93.9310,2.116,1111122 
TCOON,ioos:station:TCOON:524:1,2016-06-05T19:18:00Z,29.8672,-93.9310,2.122,1111122 
TCOON,ioos:station:TCOON:524:1,2016-06-05T20:18:00Z,29.8672,-93.9310,2.141,1111122 
TCOON,ioos:station:TCOON:524:1,2016-06-05T21:18:00Z,29.8672,-93.9310,2.138,1111122 
TCOON,ioos:station:TCOON:524:1,2016-06-05T22:18:00Z,29.8672,-93.9310,2.104,1111122 
TCOON,ioos:station:TCOON:524:1,2016-06-05T23:18:00Z,29.8672,-93.9310,2.08,1111122 
TCOON,ioos:station:TCOON:524:1,2016-06-06T00:18:00Z,29.8672,-93.9310,2.067,1111122 
TCOON,ioos:station:TCOON:524:1,2016-06-06T01:18:00Z,29.8672,-93.9310,1.947,1111122 
TCOON,ioos:station:TCOON:524:1,2016-06-06T02:18:00Z,29.8672,-93.9310,1.931,1111122 
TCOON,ioos:station:TCOON:524:1,2016-06-06T03:18:00Z,29.8672,-93.9310,1.878,1111122 
TCOON,ioos:station:TCOON:524:1,2016-06-06T04:18:00Z,29.8672,-93.9310,1.863,1111122 
TCOON,ioos:station:TCOON:524:1,2016-06-06T05:18:00Z,29.8672,-93.9310,1.85,1111122 
TCOON,ioos:station:TCOON:524:1,2016-06-06T06:18:00Z,29.8672,-93.9310,1.864,1111122 
TCOON,ioos:station:TCOON:524:1,2016-06-06T07:18:00Z,29.8672,-93.9310,1.9,1111122 
TCOON,ioos:station:TCOON:524:1,2016-06-06T08:18:00Z,29.8672,-93.9310,1.97,1111122 
TCOON,ioos:station:TCOON:524:1,2016-06-06T09:18:00Z,29.8672,-93.9310,2.022,1111122 
TCOON,ioos:station:TCOON:524:1,2016-06-06T10:18:00Z,29.8672,-93.9310,2.088,1111122 
TCOON,ioos:station:TCOON:524:1,2016-06-06T11:18:00Z,29.8672,-93.9310,2.125,1111122 
TCOON,ioos:station:TCOON:524:1,2016-06-06T12:18:00Z,29.8672,-93.9310,2.194,1111122 
TCOON,ioos:station:TCOON:524:1,2016-06-06T13:18:00Z,29.8672,-93.9310,2.207,1111122 
TCOON,ioos:station:TCOON:524:1,2016-06-06T14:18:00Z,29.8672,-93.9310,2.249,1111122 
TCOON,ioos:station:TCOON:524:1,2016-06-06T15:18:00Z,29.8672,-93.9310,2.253,1111122 
TCOON,ioos:station:TCOON:524:1,2016-06-06T16:18:00Z,29.8672,-93.9310,2.15,1111122 
TCOON,ioos:station:TCOON:524:1,2016-06-06T17:18:00Z,29.8672,-93.9310,2.124,1111122 
TCOON,ioos:station:TCOON:524:1,2016-06-06T18:18:00Z,29.8672,-93.9310,2.142,1111122 
TCOON,ioos:station:TCOON:524:1,2016-06-06T19:18:00Z,29.8672,-93.9310,2.12,1111122 
TCOON,ioos:station:TCOON:524:1,2016-06-06T21:06:00Z,29.8672,-93.9310,2.13,1111122 
TCOON,ioos:station:TCOON:524:1,2016-06-06T22:18:00Z,29.8672,-93.9310,2.129,1111122 
TCOON,ioos:station:TCOON:524:1,2016-06-06T23:24:00Z,29.8672,-93.9310,2.108,1111122 
TCOON,ioos:station:TCOON:524:1,2016-06-07T00:18:00Z,29.8672,-93.9310,2.107,1111122 
TCOON,ioos:station:TCOON:524:1,2016-06-07T01:18:00Z,29.8672,-93.9310,2.057,1111122 
TCOON,ioos:station:TCOON:524:1,2016-06-07T02:18:00Z,29.8672,-93.9310,1.947,1111122 
TCOON,ioos:station:TCOON:524:1,2016-06-07T03:18:00Z,29.8672,-93.9310,1.898,1111122 
TCOON,ioos:station:TCOON:524:1,2016-06-07T04:18:00Z,29.8672,-93.9310,1.852,1111122 
TCOON,ioos:station:TCOON:524:1,2016-06-07T05:18:00Z,29.8672,-93.9310,1.855,1111122 
TCOON,ioos:station:TCOON:524:1,2016-06-07T06:18:00Z,29.8672,-93.9310,1.837,1111122 
TCOON,ioos:station:TCOON:524:1,2016-06-07T07:18:00Z,29.8672,-93.9310,1.882,1111122 
TCOON,ioos:station:TCOON:524:1,2016-06-07T08:18:00Z,29.8672,-93.9310,1.914,1111122 
TCOON,ioos:station:TCOON:524:1,2016-06-07T09:18:00Z,29.8672,-93.9310,1.957,1111122 
TCOON,ioos:station:TCOON:524:1,2016-06-07T10:18:00Z,29.8672,-93.9310,2.014,1111122 
TCOON,ioos:station:TCOON:524:1,2016-06-07T11:18:00Z,29.8672,-93.9310,2.075,1111122 
TCOON,ioos:station:TCOON:524:1,2016-06-07T12:18:00Z,29.8672,-93.9310,2.146,1111122 
TCOON,ioos:station:TCOON:524:1,2016-06-07T13:18:00Z,29.8672,-93.9310,2.179,1111122 
TCOON,ioos:station:TCOON:524:1,2016-06-07T14:18:00Z,29.8672,-93.9310,2.203,1111122 
TCOON,ioos:station:TCOON:524:1,2016-06-07T15:18:00Z,29.8672,-93.9310,2.2,1111122 
TCOON,ioos:station:TCOON:524:1,2016-06-07T16:18:00Z,29.8672,-93.9310,2.111,1111122 
TCOON,ioos:station:TCOON:524:1,2016-06-07T17:18:00Z,29.8672,-93.9310,2.135,1111122 
TCOON,ioos:station:TCOON:524:1,2016-06-07T18:18:00Z,29.8672,-93.9310,2.099,1111122 
TCOON,ioos:station:TCOON:524:1,2016-06-07T19:18:00Z,29.8672,-93.9310,2.1,1111122 
TCOON,ioos:station:TCOON:524:1,2016-06-07T20:18:00Z,29.8672,-93.9310,2.069,1111122 
TCOON,ioos:station:TCOON:524:1,2016-06-07T21:24:00Z,29.8672,-93.9310,2.146,1111122 
TCOON,ioos:station:TCOON:524:1,2016-06-07T22:18:00Z,29.8672,-93.9310,2.138,1111122 
TCOON,ioos:station:TCOON:524:1,2016-06-07T23:18:00Z,29.8672,-93.9310,2.096,1111122 
TCOON,ioos:station:TCOON:524:1,2016-06-08T00:18:00Z,29.8672,-93.9310,2.081,1111122 
TCOON,ioos:station:TCOON:524:1,2016-06-08T01:18:00Z,29.8672,-93.9310,2.05,1111122 
TCOON,ioos:station:TCOON:524:1,2016-06-08T02:18:00Z,29.8672,-93.9310,2.002,1111122 
TCOON,ioos:station:TCOON:524:1,2016-06-08T03:18:00Z,29.8672,-93.9310,1.941,1111122 
TCOON,ioos:station:TCOON:524:1,2016-06-08T04:24:00Z,29.8672,-93.9310,1.887,1111122 
TCOON,ioos:station:TCOON:524:1,2016-06-08T05:18:00Z,29.8672,-93.9310,1.849,1111122 
TCOON,ioos:station:TCOON:524:1,2016-06-08T06:18:00Z,29.8672,-93.9310,1.858,1111122 
TCOON,ioos:station:TCOON:524:1,2016-06-08T07:18:00Z,29.8672,-93.9310,1.842,1111122 
TCOON,ioos:station:TCOON:524:1,2016-06-08T08:18:00Z,29.8672,-93.9310,1.876,1111122 
TCOON,ioos:station:TCOON:524:1,2016-06-08T09:18:00Z,29.8672,-93.9310,1.903,1111122 
TCOON,ioos:station:TCOON:524:1,2016-06-08T10:18:00Z,29.8672,-93.9310,1.968,1111122 
TCOON,ioos:station:TCOON:524:1,2016-06-08T11:18:00Z,29.8672,-93.9310,2.022,1111122 
TCOON,ioos:station:TCOON:524:1,2016-06-08T12:18:00Z,29.8672,-93.9310,2.074,1111122 
TCOON,ioos:station:TCOON:524:1,2016-06-08T13:18:00Z,29.8672,-93.9310,2.12,1111122 
TCOON,ioos:station:TCOON:524:1,2016-06-08T14:18:00Z,29.8672,-93.9310,2.187,1111122 
TCOON,ioos:station:TCOON:524:1,2016-06-08T15:36:00Z,29.8672,-93.9310,2.173,1111122 
TCOON,ioos:station:TCOON:524:1,2016-06-08T16:18:00Z,29.8672,-93.9310,2.157,1111122 
TCOON,ioos:station:TCOON:524:1,2016-06-08T17:18:00Z,29.8672,-93.9310,2.163,1111122 
TCOON,ioos:station:TCOON:524:1,2016-06-08T18:18:00Z,29.8672,-93.9310,2.145,1111122 
TCOON,ioos:station:TCOON:524:1,2016-06-08T19:18:00Z,29.8672,-93.9310,2.084,1111122 
TCOON,ioos:station:TCOON:524:1,2016-06-08T20:18:00Z,29.8672,-93.9310,2.138,1111122 
TCOON,ioos:station:TCOON:524:1,2016-06-08T21:18:00Z,29.8672,-93.9310,2.129,1111122 
TCOON,ioos:station:TCOON:524:1,2016-06-08T22:18:00Z,29.8672,-93.9310,2.126,1111122 
TCOON,ioos:station:TCOON:524:1,2016-06-08T23:18:00Z,29.8672,-93.9310,2.144,1111122 
TCOON,ioos:station:TCOON:524:1,2016-06-09T00:18:00Z,29.8672,-93.9310,2.1,1111122 
TCOON,ioos:station:TCOON:524:1,2016-06-09T01:18:00Z,29.8672,-93.9310,2.115,1111122 
TCOON,ioos:station:TCOON:524:1,2016-06-09T02:18:00Z,29.8672,-93.9310,2.089,1111122 
TCOON,ioos:station:TCOON:524:1,2016-06-09T03:18:00Z,29.8672,-93.9310,2.04,1111122 
TCOON,ioos:station:TCOON:524:1,2016-06-09T04:18:00Z,29.8672,-93.9310,2.018,1111122 
TCOON,ioos:station:TCOON:524:1,2016-06-09T05:18:00Z,29.8672,-93.9310,1.934,1111122 
TCOON,ioos:station:TCOON:524:1,2016-06-09T06:24:00Z,29.8672,-93.9310,1.909,1111122 
TCOON,ioos:station:TCOON:524:1,2016-06-09T07:18:00Z,29.8672,-93.9310,1.9,1111122 
TCOON,ioos:station:TCOON:524:1,2016-06-09T08:18:00Z,29.8672,-93.9310,1.897,1111122 
TCOON,ioos:station:TCOON:524:1,2016-06-09T09:18:00Z,29.8672,-93.9310,1.932,1111122 
TCOON,ioos:station:TCOON:524:1,2016-06-09T10:18:00Z,29.8672,-93.9310,1.951,1111122 
TCOON,ioos:station:TCOON:524:1,2016-06-09T11:18:00Z,29.8672,-93.9310,1.955,1111122 
TCOON,ioos:station:TCOON:524:1,2016-06-09T12:18:00Z,29.8672,-93.9310,2.054,1111122 
TCOON,ioos:station:TCOON:524:1,2016-06-09T13:18:00Z,29.8672,-93.9310,2.083,1111122 
TCOON,ioos:station:TCOON:524:1,2016-06-09T14:18:00Z,29.8672,-93.9310,2.141,1111122 
TCOON,ioos:station:TCOON:524:1,2016-06-09T15:18:00Z,29.8672,-93.9310,2.16,1111122 
TCOON,ioos:station:TCOON:524:1,2016-06-09T16:18:00Z,29.8672,-93.9310,2.157,1111122 
TCOON,ioos:station:TCOON:524:1,2016-06-09T17:18:00Z,29.8672,-93.9310,2.16,1111122 
TCOON,ioos:station:TCOON:524:1,2016-06-09T18:18:00Z,29.8672,-93.9310,2.153,1111122 
TCOON,ioos:station:TCOON:524:1,2016-06-09T19:18:00Z,29.8672,-93.9310,2.093,1111122 
TCOON,ioos:station:TCOON:524:1,2016-06-09T20:18:00Z,29.8672,-93.9310,2.102,1111122 
TCOON,ioos:station:TCOON:524:1,2016-06-09T21:18:00Z,29.8672,-93.9310,2.079,1111122 
TCOON,ioos:station:TCOON:524:1,2016-06-09T22:18:00Z,29.8672,-93.9310,2.091,1111122 
TCOON,ioos:station:TCOON:524:1,2016-06-09T23:18:00Z,29.8672,-93.9310,2.093,1111122 
TCOON,ioos:station:TCOON:524:1,2016-06-10T00:18:00Z,29.8672,-93.9310,2.095,1111122 
TCOON,ioos:station:TCOON:524:1,2016-06-10T01:18:00Z,29.8672,-93.9310,2.062,1111122 
TCOON,ioos:station:TCOON:524:1,2016-06-10T02:18:00Z,29.8672,-93.9310,2.093,1111122 
TCOON,ioos:station:TCOON:524:1,2016-06-10T03:18:00Z,29.8672,-93.9310,2.057,1111122 
TCOON,ioos:station:TCOON:524:1,2016-06-10T04:18:00Z,29.8672,-93.9310,2.013,1111122 
TCOON,ioos:station:TCOON:524:1,2016-06-10T05:18:00Z,29.8672,-93.9310,1.985,1111122 
TCOON,ioos:station:TCOON:524:1,2016-06-10T06:18:00Z,29.8672,-93.9310,1.952,1111122 
TCOON,ioos:station:TCOON:524:1,2016-06-10T07:18:00Z,29.8672,-93.9310,1.927,1111122 
TCOON,ioos:station:TCOON:524:1,2016-06-10T08:18:00Z,29.8672,-93.9310,1.911,1111122 
TCOON,ioos:station:TCOON:524:1,2016-06-10T09:18:00Z,29.8672,-93.9310,1.894,1111122 
TCOON,ioos:station:TCOON:524:1,2016-06-10T10:18:00Z,29.8672,-93.9310,1.92,1111122 
TCOON,ioos:station:TCOON:524:1,2016-06-10T11:18:00Z,29.8672,-93.9310,1.941,1111122 
TCOON,ioos:station:TCOON:524:1,2016-06-10T12:18:00Z,29.8672,-93.9310,1.968,1111122 
TCOON,ioos:station:TCOON:524:1,2016-06-10T13:18:00Z,29.8672,-93.9310,2.006,1111122 
TCOON,ioos:station:TCOON:524:1,2016-06-10T14:18:00Z,29.8672,-93.9310,2.053,1111122 
TCOON,ioos:station:TCOON:524:1,2016-06-10T15:18:00Z,29.8672,-93.9310,2.044,1111122 
TCOON,ioos:station:TCOON:524:1,2016-06-10T16:18:00Z,29.8672,-93.9310,2.104,1111122 
TCOON,ioos:station:TCOON:524:1,2016-06-10T17:18:00Z,29.8672,-93.9310,2.073,1111122 
TCOON,ioos:station:TCOON:524:1,2016-06-10T18:18:00Z,29.8672,-93.9310,2.086,1111122 
TCOON,ioos:station:TCOON:524:1,2016-06-10T19:18:00Z,29.8672,-93.9310,2.063,1111122 
TCOON,ioos:station:TCOON:524:1,2016-06-10T20:18:00Z,29.8672,-93.9310,2.003,1111122 
TCOON,ioos:station:TCOON:524:1,2016-06-10T21:18:00Z,29.8672,-93.9310,1.979,1111122 
TCOON,ioos:station:TCOON:524:1,2016-06-10T22:18:00Z,29.8672,-93.9310,1.978,1111122 
TCOON,ioos:station:TCOON:524:1,2016-06-10T23:18:00Z,29.8672,-93.9310,1.958,1111122 
TCOON,ioos:station:TCOON:524:1,2016-06-11T00:18:00Z,29.8672,-93.9310,1.961,1111122 
TCOON,ioos:station:TCOON:524:1,2016-06-11T01:18:00Z,29.8672,-93.9310,1.933,1111122 
TCOON,ioos:station:TCOON:524:1,2016-06-11T02:18:00Z,29.8672,-93.9310,1.928,1111122 
TCOON,ioos:station:TCOON:524:1,2016-06-11T03:18:00Z,29.8672,-93.9310,1.962,1111122 
TCOON,ioos:station:TCOON:524:1,2016-06-11T04:18:00Z,29.8672,-93.9310,1.941,1111122 
TCOON,ioos:station:TCOON:524:1,2016-06-11T05:18:00Z,29.8672,-93.9310,1.901,1111122 
TCOON,ioos:station:TCOON:524:1,2016-06-11T06:18:00Z,29.8672,-93.9310,1.869,1111122 
TCOON,ioos:station:TCOON:524:1,2016-06-11T07:18:00Z,29.8672,-93.9310,1.868,1111122 
TCOON,ioos:station:TCOON:524:1,2016-06-11T08:18:00Z,29.8672,-93.9310,1.857,1111122 
TCOON,ioos:station:TCOON:524:1,2016-06-11T09:18:00Z,29.8672,-93.9310,1.83,1111122 
TCOON,ioos:station:TCOON:524:1,2016-06-11T10:18:00Z,29.8672,-93.9310,1.851,1111122 
TCOON,ioos:station:TCOON:524:1,2016-06-11T11:24:00Z,29.8672,-93.9310,1.863,1111122 
TCOON,ioos:station:TCOON:524:1,2016-06-11T12:18:00Z,29.8672,-93.9310,1.872,1111122 
TCOON,ioos:station:TCOON:524:1,2016-06-11T13:18:00Z,29.8672,-93.9310,1.901,1111122 
TCOON,ioos:station:TCOON:524:1,2016-06-11T14:18:00Z,29.8672,-93.9310,1.933,1111122 
TCOON,ioos:station:TCOON:524:1,2016-06-11T15:18:00Z,29.8672,-93.9310,1.978,1111122 
TCOON,ioos:station:TCOON:524:1,2016-06-11T16:18:00Z,29.8672,-93.9310,2.003,1111122 
TCOON,ioos:station:TCOON:524:1,2016-06-11T17:18:00Z,29.8672,-93.9310,2.037,1111122 
TCOON,ioos:station:TCOON:524:1,2016-06-11T18:18:00Z,29.8672,-93.9310,2.035,1111122 
TCOON,ioos:station:TCOON:524:1,2016-06-11T19:18:00Z,29.8672,-93.9310,2.002,1111122 
TCOON,ioos:station:TCOON:524:1,2016-06-11T20:18:00Z,29.8672,-93.9310,1.957,1111122 
TCOON,ioos:station:TCOON:524:1,2016-06-11T21:18:00Z,29.8672,-93.9310,1.933,1111122 
TCOON,ioos:station:TCOON:524:1,2016-06-11T22:18:00Z,29.8672,-93.9310,1.919,1111122 
TCOON,ioos:station:TCOON:524:1,2016-06-11T23:18:00Z,29.8672,-93.9310,1.878,1111122 
TCOON,ioos:station:TCOON:524:1,2016-06-12T00:18:00Z,29.8672,-93.9310,1.896,1111122 
TCOON,ioos:station:TCOON:524:1,2016-06-12T01:18:00Z,29.8672,-93.9310,1.872,1111122 
TCOON,ioos:station:TCOON:524:1,2016-06-12T02:18:00Z,29.8672,-93.9310,1.879,1111122 
TCOON,ioos:station:TCOON:524:1,2016-06-12T03:18:00Z,29.8672,-93.9310,1.92,1111122 
TCOON,ioos:station:TCOON:524:1,2016-06-12T04:18:00Z,29.8672,-93.9310,1.89,1111122 
TCOON,ioos:station:TCOON:524:1,2016-06-12T05:18:00Z,29.8672,-93.9310,1.954,1111122 
TCOON,ioos:station:TCOON:524:1,2016-06-12T06:18:00Z,29.8672,-93.9310,1.901,1111122 
TCOON,ioos:station:TCOON:524:1,2016-06-12T07:18:00Z,29.8672,-93.9310,1.884,1111122 
TCOON,ioos:station:TCOON:524:1,2016-06-12T08:18:00Z,29.8672,-93.9310,1.847,1111122 
TCOON,ioos:station:TCOON:524:1,2016-06-12T09:18:00Z,29.8672,-93.9310,1.869,1111122 
TCOON,ioos:station:TCOON:524:1,2016-06-12T10:18:00Z,29.8672,-93.9310,1.848,1111122 
TCOON,ioos:station:TCOON:524:1,2016-06-12T11:18:00Z,29.8672,-93.9310,1.811,1111122 
TCOON,ioos:station:TCOON:524:1,2016-06-12T12:18:00Z,29.8672,-93.9310,1.833,1111122 
TCOON,ioos:station:TCOON:524:1,2016-06-12T13:18:00Z,29.8672,-93.9310,1.849,1111122 
TCOON,ioos:station:TCOON:524:1,2016-06-12T14:18:00Z,29.8672,-93.9310,1.935,1111122 
TCOON,ioos:station:TCOON:524:1,2016-06-12T15:18:00Z,29.8672,-93.9310,1.906,1111122 
TCOON,ioos:station:TCOON:524:1,2016-06-12T16:18:00Z,29.8672,-93.9310,1.965,1111122 
TCOON,ioos:station:TCOON:524:1,2016-06-12T17:12:00Z,29.8672,-93.9310,1.964,1111122 
TCOON,ioos:station:TCOON:524:1,2016-06-12T18:18:00Z,29.8672,-93.9310,1.982,1111122 
TCOON,ioos:station:TCOON:524:1,2016-06-12T19:18:00Z,29.8672,-93.9310,1.958,1111122 
TCOON,ioos:station:TCOON:524:1,2016-06-12T20:18:00Z,29.8672,-93.9310,1.966,1111122 
TCOON,ioos:station:TCOON:524:1,2016-06-12T21:18:00Z,29.8672,-93.9310,1.904,1111122 